SCO6DC EGCC-EGKK

Flight info

Callsign SCO6DC
Flight time 0h 45m
Altitude 19000
Route LISTO L612 HON N859 KIDLI
Aircraft A320/M-SDE3FGHIRWY/LB1

Departure

Time 2026-05-04 20:45
Airport Manchester Airport (EGCC)

Arrival

Time 2026-05-04 21:30
Airport London Gatwick Airport (EGKK)
Time Latitude Longitude Altitude Speed Heading
2026-05-04 20:09 53.36169 -2.27695 243 ft 0 kts 16°
2026-05-04 20:35 53.36155 -2.27702 243 ft 4 kts 16°
2026-05-04 20:36 53.36137 -2.27711 243 ft 4 kts 15°
2026-05-04 20:36 53.36105 -2.27732 243 ft 4 kts 43°
2026-05-04 20:36 53.36093 -2.27766 243 ft 3 kts 101°
2026-05-04 20:36 53.36093 -2.27772 242 ft 0 kts 104°
2026-05-04 20:39 53.36089 -2.27742 243 ft 4 kts 104°
2026-05-04 20:40 53.36071 -2.27642 243 ft 9 kts 118°
2026-05-04 20:40 53.36011 -2.27624 243 ft 11 kts 187°
2026-05-04 20:40 53.35909 -2.27642 242 ft 16 kts 186°
2026-05-04 20:40 53.35800 -2.27660 241 ft 15 kts 186°
2026-05-04 20:41 53.35700 -2.27622 241 ft 14 kts 159°
2026-05-04 20:41 53.35627 -2.27521 241 ft 13 kts 124°
2026-05-04 20:41 53.35649 -2.27394 242 ft 14 kts 52°
2026-05-04 20:41 53.35726 -2.27236 244 ft 19 kts 51°
2026-05-04 20:42 53.35808 -2.27063 246 ft 13 kts 51°
2026-05-04 20:42 53.35855 -2.26935 248 ft 13 kts 58°
2026-05-04 20:42 53.35916 -2.26798 249 ft 15 kts 59°
2026-05-04 20:42 53.35986 -2.26640 251 ft 20 kts 51°
2026-05-04 20:43 53.36079 -2.26450 254 ft 22 kts 51°
2026-05-04 20:43 53.36173 -2.26265 256 ft 15 kts 32°
2026-05-04 20:43 53.36247 -2.26144 258 ft 15 kts 52°
2026-05-04 20:43 53.36270 -2.26014 259 ft 10 kts 95°
2026-05-04 20:44 53.36286 -2.25903 260 ft 12 kts 73°
2026-05-04 20:44 53.36254 -2.25758 262 ft 13 kts 143°
2026-05-04 20:44 53.36203 -2.25785 261 ft 0 kts 229°
2026-05-04 20:44 53.36157 -2.25877 259 ft 44 kts 232°
2026-05-04 20:45 53.35791 -2.26635 251 ft 119 kts 231°
2026-05-04 20:45 53.35148 -2.27963 356 ft 164 kts 234°
2026-05-04 20:45 53.34452 -2.29423 1225 ft 159 kts 235°
2026-05-04 20:45 53.33765 -2.30865 2033 ft 161 kts 235°
2026-05-04 20:46 53.33042 -2.32387 2555 ft 177 kts 234°
2026-05-04 20:46 53.32359 -2.34229 2922 ft 198 kts 257°
2026-05-04 20:46 53.32419 -2.36616 3370 ft 220 kts 286°
2026-05-04 20:46 53.32849 -2.39226 3922 ft 244 kts 284°
2026-05-04 20:47 53.32838 -2.42120 4658 ft 258 kts 251°
2026-05-04 20:47 53.31785 -2.44550 5484 ft 266 kts 217°
2026-05-04 20:47 53.30052 -2.45684 6471 ft 273 kts 190°
2026-05-04 20:47 53.28144 -2.45536 7433 ft 280 kts 167°
2026-05-04 20:48 53.26314 -2.44354 8406 ft 285 kts 153°
2026-05-04 20:48 53.24551 -2.42778 9391 ft 289 kts 153°
2026-05-04 20:48 53.22760 -2.41186 10311 ft 296 kts 153°
2026-05-04 20:48 53.21526 -2.40093 10595 ft 311 kts 153°
2026-05-04 20:49 53.18869 -2.37753 11383 ft 330 kts 153°
2026-05-04 20:49 53.16822 -2.35956 12244 ft 335 kts 153°
2026-05-04 20:49 53.14748 -2.34139 13126 ft 339 kts 154°
2026-05-04 20:49 53.12650 -2.32306 13986 ft 342 kts 154°
2026-05-04 20:50 53.11249 -2.31083 14486 ft 345 kts 154°
2026-05-04 20:50 53.08415 -2.28607 15492 ft 349 kts 154°
2026-05-04 20:50 53.06255 -2.26724 16251 ft 352 kts 154°
2026-05-04 20:50 53.04070 -2.24828 16997 ft 356 kts 154°
2026-05-04 20:51 53.01866 -2.22914 17751 ft 360 kts 154°
2026-05-04 20:51 52.99637 -2.20977 18469 ft 363 kts 154°
2026-05-04 20:51 52.97389 -2.19023 18903 ft 366 kts 154°
2026-05-04 20:51 52.95129 -2.17059 19015 ft 367 kts 154°
2026-05-04 20:52 52.92869 -2.15101 19058 ft 366 kts 154°
2026-05-04 20:52 52.90613 -2.13153 19059 ft 366 kts 154°
2026-05-04 20:52 52.88355 -2.11208 19060 ft 366 kts 154°
2026-05-04 20:52 52.86864 -2.09924 19060 ft 366 kts 154°
2026-05-04 20:53 52.83845 -2.07322 19057 ft 366 kts 154°
2026-05-04 20:53 52.81588 -2.05377 19060 ft 366 kts 154°
2026-05-04 20:53 52.79332 -2.03439 19061 ft 366 kts 154°
2026-05-04 20:53 52.77076 -2.01506 19059 ft 366 kts 154°
2026-05-04 20:54 52.74811 -1.99568 19055 ft 366 kts 154°
2026-05-04 20:54 52.72556 -1.97636 19058 ft 366 kts 154°
2026-05-04 20:54 52.70296 -1.95700 19054 ft 366 kts 154°
2026-05-04 20:54 52.68039 -1.93767 19052 ft 366 kts 154°
2026-05-04 20:55 52.65814 -1.91865 19066 ft 366 kts 154°
2026-05-04 20:55 52.63553 -1.89942 19066 ft 365 kts 154°
2026-05-04 20:55 52.61293 -1.88027 19070 ft 365 kts 154°
2026-05-04 20:55 52.59034 -1.86113 19075 ft 365 kts 154°
2026-05-04 20:56 52.56778 -1.84197 19079 ft 365 kts 154°
2026-05-04 20:56 52.54522 -1.82279 19082 ft 365 kts 154°
2026-05-04 20:56 52.52270 -1.80367 19084 ft 365 kts 154°
2026-05-04 20:56 52.50014 -1.78458 19085 ft 365 kts 154°
2026-05-04 20:57 52.47760 -1.76555 19085 ft 364 kts 154°
2026-05-04 20:57 52.45507 -1.74652 19084 ft 364 kts 154°
2026-05-04 20:57 52.43254 -1.72751 19084 ft 364 kts 155°
2026-05-04 20:57 52.41002 -1.70859 19085 ft 364 kts 155°
2026-05-04 20:58 52.38752 -1.68974 19082 ft 362 kts 155°
2026-05-04 20:58 52.36518 -1.67102 19084 ft 360 kts 155°
2026-05-04 20:58 52.34202 -1.65605 19078 ft 357 kts 164°
2026-05-04 20:58 52.31836 -1.64371 19076 ft 357 kts 164°
2026-05-04 20:59 52.29469 -1.63137 19071 ft 357 kts 164°
2026-05-04 20:59 52.27105 -1.61907 19052 ft 357 kts 164°
2026-05-04 20:59 52.24740 -1.60677 19052 ft 357 kts 164°
2026-05-04 20:59 52.23174 -1.59863 19054 ft 357 kts 164°
2026-05-04 21:00 52.20012 -1.58217 19055 ft 357 kts 163°
2026-05-04 21:00 52.17647 -1.56985 19056 ft 357 kts 163°
2026-05-04 21:00 52.15314 -1.55771 19058 ft 357 kts 164°
2026-05-04 21:00 52.12949 -1.54545 19057 ft 357 kts 163°
2026-05-04 21:01 52.10582 -1.53320 19059 ft 357 kts 163°
2026-05-04 21:01 52.08216 -1.52096 19057 ft 357 kts 163°
2026-05-04 21:01 52.05853 -1.50874 19060 ft 357 kts 163°
2026-05-04 21:01 52.03490 -1.49656 19059 ft 357 kts 163°
2026-05-04 21:02 52.01886 -1.48832 19056 ft 357 kts 163°
2026-05-04 21:02 51.98751 -1.47221 18886 ft 357 kts 163°
2026-05-04 21:02 51.96399 -1.46009 18562 ft 353 kts 163°
2026-05-04 21:02 51.94055 -1.44803 18170 ft 353 kts 163°
2026-05-04 21:03 51.91721 -1.43602 17735 ft 351 kts 163°
2026-05-04 21:03 51.89400 -1.42406 17282 ft 349 kts 163°
2026-05-04 21:03 51.87092 -1.41219 16845 ft 347 kts 163°
2026-05-04 21:03 51.84794 -1.40045 16436 ft 346 kts 163°
2026-05-04 21:04 51.82505 -1.38879 16018 ft 344 kts 163°
2026-05-04 21:04 51.80227 -1.37718 15611 ft 343 kts 163°
2026-05-04 21:04 51.77964 -1.36545 15200 ft 341 kts 160°
2026-05-04 21:04 51.75861 -1.34800 15041 ft 341 kts 147°
2026-05-04 21:05 51.75192 -1.34091 15045 ft 341 kts 147°
2026-05-04 21:05 51.71882 -1.30619 15054 ft 341 kts 147°
2026-05-04 21:05 51.69890 -1.28546 15053 ft 341 kts 148°
2026-05-04 21:05 51.67892 -1.26475 15054 ft 341 kts 148°
2026-05-04 21:06 51.65897 -1.24410 15055 ft 341 kts 147°
2026-05-04 21:06 51.63904 -1.22343 15056 ft 341 kts 147°
2026-05-04 21:06 51.61912 -1.20275 15057 ft 341 kts 147°
2026-05-04 21:06 51.60592 -1.18907 15055 ft 341 kts 147°
2026-05-04 21:07 51.57925 -1.16148 15002 ft 341 kts 147°
2026-05-04 21:07 51.55937 -1.14090 15045 ft 340 kts 147°
2026-05-04 21:07 51.53946 -1.12029 15058 ft 340 kts 147°
2026-05-04 21:07 51.51956 -1.09971 15058 ft 340 kts 147°
2026-05-04 21:08 51.49965 -1.07917 15054 ft 340 kts 147°
2026-05-04 21:08 51.47970 -1.05868 15052 ft 340 kts 147°
2026-05-04 21:08 51.45980 -1.03826 15048 ft 340 kts 147°
2026-05-04 21:08 51.43998 -1.01790 15045 ft 340 kts 147°
2026-05-04 21:09 51.42029 -0.99768 15030 ft 339 kts 147°
2026-05-04 21:09 51.40042 -0.97728 15013 ft 340 kts 147°
2026-05-04 21:09 51.38056 -0.95688 14843 ft 338 kts 147°
2026-05-04 21:09 51.36079 -0.93660 14665 ft 338 kts 147°
2026-05-04 21:10 51.34169 -0.91702 14507 ft 337 kts 147°
2026-05-04 21:10 51.32197 -0.89685 14334 ft 336 kts 147°
2026-05-04 21:10 51.30228 -0.87679 14164 ft 335 kts 147°
2026-05-04 21:10 51.28265 -0.85683 14001 ft 334 kts 147°
2026-05-04 21:11 51.26308 -0.83690 13837 ft 333 kts 147°
2026-05-04 21:11 51.24353 -0.81699 13641 ft 333 kts 147°
2026-05-04 21:11 51.22406 -0.79719 13460 ft 332 kts 147°
2026-05-04 21:11 51.20461 -0.77743 13266 ft 331 kts 147°
2026-05-04 21:12 51.18523 -0.75776 13081 ft 330 kts 147°
2026-05-04 21:12 51.16589 -0.73813 12895 ft 329 kts 147°
2026-05-04 21:12 51.14662 -0.71863 12720 ft 328 kts 147°
2026-05-04 21:12 51.12740 -0.69920 12531 ft 327 kts 147°
2026-05-04 21:13 51.10824 -0.67985 12354 ft 326 kts 147°
2026-05-04 21:13 51.08913 -0.66059 12167 ft 325 kts 147°
2026-05-04 21:13 51.07010 -0.64131 11986 ft 323 kts 145°
2026-05-04 21:13 51.05376 -0.61780 11812 ft 319 kts 128°
2026-05-04 21:14 51.04574 -0.59862 11687 ft 314 kts 117°
2026-05-04 21:14 51.03601 -0.56746 11510 ft 315 kts 116°
2026-05-04 21:14 51.02629 -0.53636 11337 ft 313 kts 116°
2026-05-04 21:14 51.01686 -0.50635 11153 ft 296 kts 116°
2026-05-04 21:15 51.00778 -0.47742 10992 ft 293 kts 116°
2026-05-04 21:15 50.99870 -0.44853 10818 ft 290 kts 116°
2026-05-04 21:15 50.98968 -0.41994 10646 ft 290 kts 116°
2026-05-04 21:15 50.98068 -0.39137 10472 ft 289 kts 116°
2026-05-04 21:16 50.97168 -0.36286 10307 ft 289 kts 116°
2026-05-04 21:16 50.96270 -0.33450 10147 ft 288 kts 117°
2026-05-04 21:16 50.95368 -0.30609 10026 ft 288 kts 116°
2026-05-04 21:16 50.94471 -0.27782 10025 ft 288 kts 116°
2026-05-04 21:17 50.93571 -0.24946 10028 ft 288 kts 116°
2026-05-04 21:17 50.92673 -0.22112 10028 ft 288 kts 116°
2026-05-04 21:17 50.91775 -0.19282 10028 ft 287 kts 116°
2026-05-04 21:17 50.90875 -0.16459 10025 ft 287 kts 117°
2026-05-04 21:18 50.89974 -0.13634 9809 ft 287 kts 116°
2026-05-04 21:18 50.89089 -0.10857 9544 ft 275 kts 116°
2026-05-04 21:18 50.88564 -0.09082 9373 ft 263 kts 109°
2026-05-04 21:18 50.88624 -0.05436 9076 ft 249 kts 65°
2026-05-04 21:19 50.89728 -0.03380 8867 ft 248 kts 32°
2026-05-04 21:19 50.90800 -0.02696 8724 ft 247 kts
2026-05-04 21:19 50.92468 -0.02951 8523 ft 248 kts 336°
2026-05-04 21:19 50.94082 -0.05427 8249 ft 247 kts 294°
2026-05-04 21:20 50.94767 -0.07940 8046 ft 248 kts 295°
2026-05-04 21:20 50.95534 -0.10376 7839 ft 244 kts 298°
2026-05-04 21:20 50.96317 -0.12721 7637 ft 238 kts 298°
2026-05-04 21:20 50.97092 -0.15024 7427 ft 235 kts 298°
2026-05-04 21:21 50.97865 -0.17339 6892 ft 237 kts 298°
2026-05-04 21:21 50.98545 -0.19629 6987 ft 230 kts 288°
2026-05-04 21:21 50.98967 -0.22097 7018 ft 233 kts 285°
2026-05-04 21:21 50.99371 -0.24589 7026 ft 234 kts 285°
2026-05-04 21:22 50.99774 -0.27093 6811 ft 233 kts 285°
2026-05-04 21:22 51.00173 -0.29584 6579 ft 232 kts 285°
2026-05-04 21:22 51.00567 -0.32055 6370 ft 231 kts 285°
2026-05-04 21:22 51.00960 -0.34522 6131 ft 230 kts 284°
2026-05-04 21:23 51.01353 -0.36986 5899 ft 230 kts 285°
2026-05-04 21:23 51.01745 -0.39444 5669 ft 230 kts 285°
2026-05-04 21:23 51.02137 -0.41906 5453 ft 230 kts 285°
2026-05-04 21:23 51.02527 -0.44365 5249 ft 229 kts 285°
2026-05-04 21:24 51.02917 -0.46820 5046 ft 229 kts 285°
2026-05-04 21:24 51.03309 -0.49275 4847 ft 229 kts 285°
2026-05-04 21:24 51.03702 -0.51720 4635 ft 228 kts 288°
2026-05-04 21:24 51.04516 -0.53793 4428 ft 222 kts 326°
2026-05-04 21:25 51.05942 -0.54475 4243 ft 217 kts
2026-05-04 21:25 51.07451 -0.54302 4064 ft 218 kts
2026-05-04 21:25 51.08941 -0.53935 3881 ft 216 kts 23°
2026-05-04 21:25 51.10074 -0.52466 3697 ft 212 kts 59°
2026-05-04 21:26 51.10517 -0.50245 3534 ft 213 kts 79°
2026-05-04 21:26 51.10806 -0.47933 3354 ft 213 kts 78°
2026-05-04 21:26 51.11109 -0.45632 3183 ft 211 kts 77°
2026-05-04 21:26 51.11414 -0.43420 3082 ft 199 kts 77°
2026-05-04 21:27 51.11707 -0.41335 2846 ft 188 kts 77°
2026-05-04 21:27 51.11986 -0.39340 2603 ft 182 kts 77°
2026-05-04 21:27 51.12258 -0.37403 2366 ft 177 kts 77°
2026-05-04 21:27 51.12524 -0.35499 2126 ft 175 kts 76°
2026-05-04 21:28 51.12775 -0.33699 1906 ft 161 kts 77°
2026-05-04 21:28 51.13014 -0.31989 1687 ft 156 kts 77°
2026-05-04 21:28 51.13239 -0.30380 1478 ft 145 kts 76°
2026-05-04 21:28 51.13450 -0.28860 1289 ft 137 kts 76°
2026-05-04 21:29 51.13652 -0.27410 1101 ft 132 kts 77°
2026-05-04 21:29 51.13854 -0.25978 906 ft 132 kts 76°
2026-05-04 21:29 51.14061 -0.24561 737 ft 132 kts 77°
2026-05-04 21:29 51.14258 -0.23123 556 ft 133 kts 77°
2026-05-04 21:30 51.14450 -0.21690 383 ft 132 kts 78°
2026-05-04 21:30 51.14647 -0.20266 219 ft 130 kts 78°
2026-05-04 21:30 51.14811 -0.19069 211 ft 84 kts 78°
2026-05-04 21:30 51.14907 -0.18590 210 ft 20 kts 51°
2026-05-04 21:31 51.15073 -0.18252 213 ft 15 kts 52°
2026-05-04 21:31 51.15164 -0.18198 205 ft 13 kts 356°
2026-05-04 21:31 51.15219 -0.18106 212 ft 13 kts 37°
2026-05-04 21:32 51.15308 -0.18121 212 ft 13 kts 347°
2026-05-04 21:32 51.15398 -0.18151 205 ft 13 kts 348°
2026-05-04 21:32 51.15481 -0.18191 211 ft 12 kts 340°
2026-05-04 21:32 51.15560 -0.18217 207 ft 11 kts 348°
2026-05-04 21:33 51.15645 -0.18232 208 ft 12 kts 14°
2026-05-04 21:33 51.15673 -0.18162 206 ft 13 kts 78°
2026-05-04 21:33 51.15700 -0.17957 206 ft 13 kts 78°
2026-05-04 21:33 51.15720 -0.17815 208 ft 8 kts 76°
2026-05-04 21:34 51.15739 -0.17735 212 ft 6 kts 37°
2026-05-04 21:34 51.15776 -0.17742 205 ft 5 kts 347°
2026-05-04 21:34 51.15804 -0.17751 214 ft 2 kts 347°
2026-05-04 21:34 51.15809 -0.17753 213 ft 0 kts 347°